Location: Unspecified
(0.0000°N, 0.0000°E)
Time: 04:43:26
(UTC+00:00)

DMSP F15 (USA 147) - Pass Details

Date: 23 May 2026
Orbit: 826 x 841 km, 99.0° (Epoch: 11 June)

Event Time Altitude Azimuth Distance (km) Brightness Sun altitude
Exits shadow 18:58:23 16° 81° (E) 2,048 6.7 -14.4°
Maximum altitude 18:58:42 16° 77° (ENE) 2,043 6.7 -14.4°
Drops below altitude 10° 19:01:51 10° 40° (NE) 2,427 7.4 -15.2°
Sets 19:05:07 0° 19° (NNE) 3,354 8.4 -15.9°
